Weather History for Mankato, MN

Change the Weather History Date:

Thursday, April 26, 2012

  Actual Average Record
Temperature  
Mean Temperature 54 °F -  
Max Temperature 62 °F 60 °F 75 °F (2001)
Min Temperature 46 °F 40 °F 26 °F (2002)
Degree Days  
Heating Degree Days 11    
Growing Degree Days 4 (Base 50)    
Moisture  
Dew Point 33 °F    
Average Humidity 52    
Maximum Humidity 87    
Minimum Humidity 29    
Precipitation  
Precipitation 0.00 in - - ()
Sea Level Pressure  
Sea Level Pressure 30.04 in    
Wind  
Wind Speed 14 mph (NE)    
Max Wind Speed 25 mph    
Max Gust Speed 31 mph    
Visibility 10 miles    
Events      
Averages and records for this station are not official NWS values.
T = Trace of Precipitation, MM = Missing Value Source: NWS Daily Summary

Daily Weather History Graph

Daily Weather History Graph

Search for Another Location

Airport:

Trip Planner

Search our weather history database for the weather conditions in past years. The results will help you decide how hot, cold, wet, or windy it might be!

Date:

Astronomy

Apr. 26, 2012 Rise Set
Actual Time 6:13 AM CDT 8:14 PM CDT
Civil Twilight 5:42 AM CDT 8:45 PM CDT
Nautical Twilight 5:03 AM CDT 9:24 PM CDT
Astronomical Twilight 4:21 AM CDT 10:06 PM CDT
Moon 9:48 AM CDT (4/26) 12:24 AM CDT (4/26)
Length of Visible Light 15h 03m
Length of Day
14h 00m
Waxing Crescent, 24% of the Moon is Illuminated
Apr 26
Waxing Crescent
Apr 29
First Quarter
May 5
Full
May 12
Last Quarter
May 20
New

Hourly Weather History & Observations

Time (CDT) Temp. Windchill Dew Point Humidity Pressure Visibility Wind Dir Wind Speed Gust Speed Precip Events Conditions
12:15 AM 62.6 °F - 48.2 °F 59% 29.75 in 10.0 mi NNW 16.1 mph 21.9 mph N/A   Clear
12:35 AM 60.8 °F - 48.2 °F 63% 29.76 in 10.0 mi North 13.8 mph 20.7 mph N/A   Clear
12:55 AM 60.8 °F - 48.2 °F 63% 29.78 in 10.0 mi North 15.0 mph 23.0 mph N/A   Clear
1:15 AM 59.0 °F - 48.2 °F 67% 29.80 in 10.0 mi North 25.3 mph 31.1 mph N/A   Clear
1:35 AM 57.2 °F - 48.2 °F 72% 29.82 in 10.0 mi NNE 23.0 mph 27.6 mph N/A   Clear
1:55 AM 55.4 °F - 46.4 °F 72% 29.84 in 10.0 mi NNE 20.7 mph 26.5 mph N/A   Clear
2:35 AM 53.6 °F - 44.6 °F 72% 29.87 in 10.0 mi North 15.0 mph 23.0 mph N/A   Clear
2:55 AM 53.6 °F - 44.6 °F 72% 29.88 in 10.0 mi NNE 19.6 mph 23.0 mph N/A   Clear
3:15 AM 51.8 °F - 44.6 °F 76% 29.89 in 10.0 mi NNE 18.4 mph 23.0 mph N/A   Clear
3:35 AM 51.8 °F - 42.8 °F 71% 29.89 in 10.0 mi NNE 19.6 mph 25.3 mph N/A   Partly Cloudy
3:55 AM 50.0 °F - 42.8 °F 76% 29.90 in 10.0 mi NNE 15.0 mph - N/A   Clear
4:15 AM 48.2 °F - 42.8 °F 82% 29.92 in 10.0 mi NNE 9.2 mph - N/A   Clear
4:35 AM 48.2 °F - 42.8 °F 82% 29.93 in 10.0 mi North 10.4 mph - N/A   Clear
4:55 AM 48.2 °F - 41.0 °F 76% 29.94 in 10.0 mi North 8.1 mph - N/A   Clear
5:15 AM 48.2 °F - 41.0 °F 76% 29.95 in 10.0 mi North 8.1 mph - N/A   Clear
5:35 AM 46.4 °F 42.9 °F 41.0 °F 81% 29.96 in 10.0 mi North 6.9 mph - N/A   Clear
5:55 AM 46.4 °F 42.4 °F 41.0 °F 81% 29.97 in 10.0 mi North 8.1 mph - N/A   Mostly Cloudy
6:15 AM 46.4 °F 43.5 °F 42.8 °F 87% 29.98 in 10.0 mi NNW 5.8 mph - N/A   Mostly Cloudy
6:35 AM 46.4 °F 41.9 °F 42.8 °F 87% 29.98 in 10.0 mi North 9.2 mph - N/A   Mostly Cloudy
6:55 AM 46.4 °F 41.5 °F 42.8 °F 87% 30.00 in 10.0 mi North 10.4 mph - N/A   Scattered Clouds
7:15 AM 46.4 °F 42.4 °F 42.8 °F 87% 30.01 in 10.0 mi North 8.1 mph - N/A   Partly Cloudy
7:35 AM 48.2 °F - 42.8 °F 82% 30.01 in 10.0 mi North 13.8 mph - N/A   Partly Cloudy
7:55 AM 48.2 °F - 41.0 °F 76% 30.01 in 10.0 mi North 13.8 mph - N/A   Clear
8:15 AM 48.2 °F - 41.0 °F 76% 30.02 in 10.0 mi North 13.8 mph - N/A   Clear
8:35 AM 48.2 °F - 39.2 °F 71% 30.03 in 10.0 mi NNE 13.8 mph - N/A   Partly Cloudy
8:55 AM 50.0 °F - 37.4 °F 62% 30.04 in 10.0 mi NNE 16.1 mph 26.5 mph N/A   Partly Cloudy
9:15 AM 50.0 °F - 37.4 °F 62% 30.04 in 10.0 mi NNE 20.7 mph - N/A   Partly Cloudy
9:35 AM 50.0 °F - 35.6 °F 58% 30.05 in 10.0 mi NNE 17.3 mph 20.7 mph N/A   Partly Cloudy
9:55 AM 51.8 °F - 35.6 °F 54% 30.06 in 10.0 mi NNE 18.4 mph 26.5 mph N/A   Partly Cloudy
10:15 AM 51.8 °F - 32.0 °F 47% 30.08 in 10.0 mi NNE 16.1 mph 23.0 mph N/A   Clear
10:35 AM 51.8 °F - 30.2 °F 44% 30.09 in 10.0 mi NE 17.3 mph 24.2 mph N/A   Clear
10:55 AM 51.8 °F - 30.2 °F 44% 30.10 in 10.0 mi NE 15.0 mph 24.2 mph N/A   Clear
11:15 AM 51.8 °F - 28.4 °F 41% 30.10 in 10.0 mi NE 17.3 mph 21.9 mph N/A   Clear
11:35 AM 51.8 °F - 26.6 °F 38% 30.10 in 10.0 mi NE 16.1 mph 23.0 mph N/A   Clear
11:55 AM 51.8 °F - 24.8 °F 35% 30.11 in 10.0 mi North 18.4 mph 23.0 mph N/A   Clear
12:15 PM 51.8 °F - 26.6 °F 38% 30.11 in 10.0 mi NNE 13.8 mph 21.9 mph N/A   Clear
12:35 PM 51.8 °F - 28.4 °F 41% 30.11 in 10.0 mi NNE 17.3 mph 26.5 mph N/A   Clear
1:15 PM 53.6 °F - 28.4 °F 38% 30.12 in 10.0 mi NE 18.4 mph - N/A   Clear
1:35 PM 53.6 °F - 24.8 °F 33% 30.12 in 10.0 mi ENE 13.8 mph 24.2 mph N/A   Clear
1:55 PM 53.6 °F - 24.8 °F 33% 30.12 in 10.0 mi NE 13.8 mph 19.6 mph N/A   Clear
2:15 PM 53.6 °F - 24.8 °F 33% 30.13 in 10.0 mi ENE 11.5 mph 19.6 mph N/A   Clear
2:35 PM 53.6 °F - 26.6 °F 35% 30.13 in 10.0 mi ENE 15.0 mph 20.7 mph N/A   Clear
2:55 PM 53.6 °F - 26.6 °F 35% 30.13 in 10.0 mi NE 11.5 mph 17.3 mph N/A   Clear
3:15 PM 53.6 °F - 26.6 °F 35% 30.12 in 10.0 mi ENE 12.7 mph - N/A   Clear
3:35 PM 55.4 °F - 24.8 °F 31% 30.12 in 10.0 mi NE 10.4 mph 18.4 mph N/A   Clear
3:55 PM 55.4 °F - 23.0 °F 29% 30.12 in 10.0 mi East 9.2 mph - N/A   Clear
4:15 PM 55.4 °F - 24.8 °F 31% 30.12 in 10.0 mi ENE 13.8 mph - N/A   Clear
4:35 PM 55.4 °F - 24.8 °F 31% 30.12 in 10.0 mi ENE 10.4 mph - N/A   Clear
4:55 PM 55.4 °F - 24.8 °F 31% 30.12 in 10.0 mi NNE 8.1 mph - N/A   Clear
5:15 PM 55.4 °F - 24.8 °F 31% 30.13 in 10.0 mi NE 10.4 mph - N/A   Clear
5:35 PM 55.4 °F - 24.8 °F 31% 30.13 in 10.0 mi ESE 10.4 mph - N/A   Clear
5:55 PM 55.4 °F - 23.0 °F 29% 30.13 in 10.0 mi ENE 12.7 mph - N/A   Clear
6:15 PM 55.4 °F - 24.8 °F 31% 30.13 in 10.0 mi NE 9.2 mph - N/A   Clear
6:35 PM 55.4 °F - 24.8 °F 31% 30.13 in 10.0 mi ENE 9.2 mph - N/A   Clear
6:55 PM 55.4 °F - 23.0 °F 29% 30.12 in 10.0 mi ENE 11.5 mph - N/A   Clear
7:35 PM 53.6 °F - 24.8 °F 33% 30.12 in 10.0 mi East 10.4 mph - N/A   Clear
7:55 PM 53.6 °F - 24.8 °F 33% 30.12 in 10.0 mi East 9.2 mph - N/A   Clear
8:15 PM 51.8 °F - 24.8 °F 35% 30.13 in 10.0 mi East 9.2 mph - N/A   Clear
8:35 PM 51.8 °F - 24.8 °F 35% 30.12 in 10.0 mi East 9.2 mph - N/A   Clear
8:55 PM 50.0 °F - 24.8 °F 37% 30.12 in 10.0 mi East 9.2 mph - N/A   Clear
9:15 PM 48.2 °F - 24.8 °F 40% - 10.0 mi North - - N/A   Clear
9:35 PM 48.2 °F - 24.8 °F 40% 30.13 in 10.0 mi East 6.9 mph - N/A   Clear
9:55 PM 48.2 °F - 24.8 °F 40% 30.14 in 10.0 mi East 8.1 mph - N/A   Clear
10:15 PM 48.2 °F - 24.8 °F 40% 30.14 in 10.0 mi East 9.2 mph - N/A   Clear
10:35 PM 46.4 °F 42.4 °F 24.8 °F 43% 30.14 in 10.0 mi East 8.1 mph - N/A   Clear
10:55 PM 46.4 °F 41.9 °F 24.8 °F 43% 30.13 in 10.0 mi East 9.2 mph - N/A   Clear
11:15 PM 46.4 °F 42.9 °F 24.8 °F 43% 30.14 in 10.0 mi East 6.9 mph - N/A   Clear
11:35 PM 46.4 °F 41.9 °F 24.8 °F 43% 30.13 in 10.0 mi East 9.2 mph - N/A   Clear
11:55 PM 46.4 °F 42.4 °F 26.6 °F 46% 30.13 in 10.0 mi East 8.1 mph - N/A   Clear